Bettles, AK

3:02 PM AKDT on July 26, 2017 (GMT -0800)
Bettles

Weather History for PABT - March, 2013

Change the Weather History Date:

Thursday, March 14, 2013

  Actual Average Record
Temperature  
Mean Temperature -5 °F -  
Max Temperature 14 °F 13 °F 39 °F (2014)
Min Temperature -24 °F -7 °F -56 °F (1964)
Degree Days  
Heating Degree Days 70    
Moisture  
Dew Point -15 °F    
Average Humidity 38    
Maximum Humidity 66    
Minimum Humidity 10    
Precipitation  
Precipitation 0.00 in - - ()
Snow  
Snow 0.00 in - - ()
Snow Depth 17.00 in    
Sea Level Pressure  
Sea Level Pressure 30.45 in    
Wind  
Wind Speed 10 mph (NE)    
Max Wind Speed 17 mph    
Max Gust Speed 32 mph    
Visibility 10 miles    
Events      
Averages and records for this station are not official NWS values.
T = Trace of Precipitation, MM = Missing Value Source: NWS Daily Summary

Daily Weather History Graph

Daily Weather History Graph

Search for Another Location

Airport or City:

Trip Planner

Search our weather history database for the weather conditions in past years. The results will help you decide how hot, cold, wet, or windy it might be!

Date:

Astronomy

Mar. 14, 2013 Rise Set
Actual Time 8:28 AM AKDT 8:03 PM AKDT
Civil Twilight 7:35 AM AKDT 8:56 PM AKDT
Nautical Twilight 6:31 AM AKDT 10:01 PM AKDT
Astronomical Twilight 5:19 AM AKDT 11:14 PM AKDT
Moon 8:14 AM AKDT (3/14) No Moon Set
Length of Visible Light 13h 21m
Length of Day
11h 35m
Waxing Crescent, 10% of the Moon is Illuminated
Mar 14
Waxing Crescent
Mar 19
First Quarter
Mar 27
Full
Apr 2
Last Quarter
Apr 10
New

Hourly Weather History & Observations

Time (AKDT) Temp. Windchill Dew Point Humidity Pressure Visibility Wind Dir Wind Speed Gust Speed Precip Events Conditions
12:53 AM -0.0 °F -13.0 °F -18.0 °F 43% 30.54 in 10.0 mi ENE 6.9 mph - N/A   Clear
1:53 AM 1.0 °F -15.8 °F -18.9 °F 39% 30.53 in 10.0 mi NNE 11.5 mph - N/A   Clear
2:53 AM 1.0 °F -14.9 °F -13.9 °F 50% 30.52 in 10.0 mi NNE 10.4 mph - N/A   Clear
3:53 AM -2.0 °F -13.9 °F -11.0 °F 66% 30.52 in 10.0 mi NNW 5.8 mph - N/A   Clear
4:53 AM 1.0 °F -14.0 °F -11.0 °F 57% 30.50 in 10.0 mi North 9.2 mph - N/A   Clear
5:53 AM -0.9 °F -8.9 °F -11.9 °F 60% 30.49 in 10.0 mi NNE 3.5 mph - N/A   Clear
6:53 AM 1.9 °F -12.9 °F -13.9 °F 48% 30.48 in 10.0 mi East 9.2 mph 24.2 mph N/A   Clear
7:53 AM 1.9 °F -16.2 °F -23.1 °F 30% 30.48 in 10.0 mi ENE 13.8 mph 26.5 mph N/A   Clear
8:53 AM 1.9 °F -13.8 °F -9.0 °F 60% 30.47 in 10.0 mi NE 10.4 mph 21.9 mph N/A   Clear
9:53 AM 1.0 °F -18.0 °F -8.0 °F 66% 30.46 in 10.0 mi NE 15.0 mph 29.9 mph N/A   Clear
10:53 AM 4.1 °F -12.0 °F -9.0 °F 55% 30.48 in 10.0 mi East 11.5 mph 24.2 mph N/A   Clear
11:53 AM 6.1 °F -12.2 °F -20.0 °F 29% 30.45 in 10.0 mi ENE 16.1 mph 32.2 mph N/A   Clear
12:53 PM 7.0 °F -9.1 °F -13.9 °F 38% 30.47 in 10.0 mi ENE 12.7 mph 24.2 mph N/A   Clear
1:53 PM 9.0 °F -7.9 °F -18.0 °F 28% 30.44 in 10.0 mi ENE 15.0 mph 32.2 mph N/A   Clear
2:53 PM 10.9 °F -6.5 °F -20.0 °F 24% 30.41 in 10.0 mi ENE 17.3 mph 32.2 mph N/A   Clear
3:53 PM 12.0 °F -3.4 °F -18.0 °F 25% 30.43 in 10.0 mi NE 13.8 mph 32.2 mph N/A   Clear
4:53 PM 12.9 °F -2.8 °F -16.1 °F 26% 30.41 in 10.0 mi NE 15.0 mph 28.8 mph N/A   Clear
5:53 PM 14.0 °F -0.2 °F -11.0 °F 32% 30.41 in 10.0 mi NE 12.7 mph 21.9 mph N/A   Clear
6:53 PM 12.9 °F -1.6 °F -17.0 °F 25% 30.40 in 10.0 mi NE 12.7 mph 21.9 mph N/A   Clear
7:53 PM 12.0 °F -0.4 °F -18.9 °F 24% 30.39 in 10.0 mi ENE 9.2 mph 27.6 mph N/A   Clear
8:53 PM 10.9 °F -4.1 °F -18.9 °F 25% 30.40 in 10.0 mi ENE 12.7 mph 26.5 mph N/A   Clear
9:53 PM 10.9 °F -0.8 °F -20.0 °F 24% 30.40 in 10.0 mi ENE 8.1 mph 20.7 mph N/A   Clear
10:53 PM 10.9 °F -3.4 °F -20.0 °F 24% 30.39 in 10.0 mi ENE 11.5 mph 27.6 mph N/A   Clear
11:53 PM 10.0 °F -4.5 °F -17.0 °F 29% 30.41 in 10.0 mi ENE 11.5 mph 26.5 mph N/A   Clear